Terminal Aerodrome Forecast
Issued by NWS Tulsa, OK

Home | Current Version | Previous Version | Text Only | Print | Product List | Glossary On
Versions: 1 2 3 4 5 6 7 8 9 10 11 12 13 14 15 16
000
FTUS44 KTSA 230500
TAFFSM
TAF
KFSM 230520Z 2306/2406 05004KT P6SM SCT150
     FM230800 07003KT P6SM SCT150 BKN250
     FM231500 09005KT P6SM SCT050 BKN100=

USA.gov is the U.S. government's official web portal to all federal, state and local government web resources and services.